Weather History for New Orleans, LA

Change the Weather History Date:

Friday, February 15, 2013

  Actual Average Record
Temperature  
Mean Temperature 52 °F -  
Max Temperature 61 °F 67 °F 82 °F (1989)
Min Temperature 42 °F 49 °F 29 °F (1960)
Degree Days  
Heating Degree Days 14    
Growing Degree Days 2 (Base 50)    
Moisture  
Dew Point 40 °F    
Average Humidity 62    
Maximum Humidity 90    
Minimum Humidity 29    
Precipitation  
Precipitation 0.00 in - - ()
Sea Level Pressure  
Sea Level Pressure 30.14 in    
Wind  
Wind Speed 3 mph (North)    
Max Wind Speed 16 mph    
Max Gust Speed 24 mph    
Visibility 10 miles    
Events      
Averages and records for this station are not official NWS values.
T = Trace of Precipitation, MM = Missing Value Source: NWS Daily Summary

Daily Weather History Graph

Daily Weather History Graph

Search for Another Location

Airport:

Trip Planner

Search our weather history database for the weather conditions in past years. The results will help you decide how hot, cold, wet, or windy it might be!

Date:

Astronomy

Feb. 15, 2013 Rise Set
Actual Time 6:40 AM CST 5:50 PM CST
Civil Twilight 6:16 AM CST 6:14 PM CST
Nautical Twilight 5:48 AM CST 6:42 PM CST
Astronomical Twilight 5:20 AM CST 7:10 PM CST
Moon 9:45 AM CST (2/15) 11:20 PM CST (2/15)
Length of Visible Light 11h 58m
Length of Day
11h 09m
Waxing Crescent, 30% of the Moon is Illuminated
Feb 15
Waxing Crescent
Feb 17
First Quarter
Feb 25
Full
Mar 4
Last Quarter
Mar 11
New

Hourly Weather History & Observations

Time (CST) Temp. Dew Point Humidity Pressure Visibility Wind Dir Wind Speed Gust Speed Precip Events Conditions
12:53 AM 44.1 °F 39.9 °F 85% 30.12 in 8.0 mi Calm Calm - N/A   Clear
1:53 AM 44.1 °F 39.9 °F 85% 30.12 in 9.0 mi Calm Calm - N/A   Clear
2:53 AM 43.0 °F 39.0 °F 86% 30.12 in 9.0 mi Calm Calm - N/A   Clear
3:53 AM 42.1 °F 39.0 °F 89% 30.12 in 10.0 mi Calm Calm - N/A   Clear
4:53 AM 42.1 °F 39.0 °F 89% 30.13 in 10.0 mi Calm Calm - N/A   Clear
5:53 AM 43.0 °F 39.9 °F 89% 30.15 in 9.0 mi Calm Calm - N/A   Clear
6:53 AM 42.1 °F 39.0 °F 89% 30.16 in 9.0 mi Calm Calm - N/A   Clear
7:53 AM 48.9 °F 46.0 °F 90% 30.18 in 7.0 mi Calm Calm - N/A   Clear
8:53 AM 57.9 °F 50.0 °F 75% 30.19 in 10.0 mi NNE 3.5 mph - N/A   Clear
9:53 AM 59.0 °F 46.0 °F 62% 30.19 in 10.0 mi North 5.8 mph - N/A   Partly Cloudy
10:34 AM 60.8 °F 41.0 °F 48% 30.18 in 10.0 mi NNE 3.5 mph - N/A   Clear
10:53 AM 61.0 °F 39.9 °F 46% 30.19 in 10.0 mi North 6.9 mph - N/A   Clear
12:53 PM 62.1 °F 37.9 °F 41% 30.15 in 10.0 mi NNE 6.9 mph - N/A   Scattered Clouds
1:53 PM 63.0 °F 39.0 °F 41% 30.12 in 10.0 mi Variable 5.8 mph - N/A   Scattered Clouds
2:53 PM 63.0 °F 37.9 °F 40% 30.11 in 10.0 mi NNW 5.8 mph - N/A   Mostly Cloudy
3:53 PM 63.0 °F 37.0 °F 38% 30.10 in 10.0 mi North 6.9 mph - N/A   Mostly Cloudy
4:53 PM 63.0 °F 37.9 °F 40% 30.09 in 10.0 mi WNW 4.6 mph - N/A   Mostly Cloudy
5:53 PM 61.0 °F 37.0 °F 41% 30.09 in 10.0 mi Calm Calm - N/A   Scattered Clouds
6:53 PM 57.9 °F 41.0 °F 53% 30.11 in 10.0 mi NNW 4.6 mph - N/A   Partly Cloudy
7:53 PM 55.0 °F 45.0 °F 69% 30.12 in 9.0 mi NW 3.5 mph - N/A   Partly Cloudy
8:53 PM 57.0 °F 41.0 °F 55% 30.15 in 10.0 mi NNW 15.0 mph 20.7 mph N/A   Partly Cloudy
9:53 PM 55.9 °F 39.9 °F 55% 30.17 in 10.0 mi North 15.0 mph 23.0 mph N/A   Scattered Clouds
10:53 PM 54.0 °F 39.0 °F 57% 30.18 in 10.0 mi North 16.1 mph 24.2 mph N/A   Partly Cloudy
11:53 PM 52.0 °F 39.9 °F 63% 30.18 in 10.0 mi North 12.7 mph - N/A   Scattered Clouds